Regional Weather Roundup
Issued by NWS

Home | Current Version | Previous Version | Graphics & Text | Print | Product List | Glossary On
Versions: 1 2 3 4 5 6 7 8 9 10 11 12 13 14 15 16 17 18 19 20 21 22 23 24 25 26 27 28 29 30 31 32 33 34 35 36 37 38 39 40 41 42 43 44 45 46 47 48 49 50
000
ASUS45 KTFX 060710
RWRMT
MONTANA REGIONAL WEATHER ROUNDUP
NATIONAL WEATHER SERVICE GREAT FALLS MT
100 AM MDT MON JUL 06 2015

NOTE: "FAIR" INDICATES FEW OR NO CLOUDS BELOW 12000 FEET WITH NO
SIGNIFICANT WEATHER AND/OR OBSTRUCTIONS TO VISIBILITY.

MTZ001>007-043-060800-
WEST OF THE DIVIDE

CITY           SKY/WX    TMP DP  RH WIND       PRES   REMARKS
KALISPELL      SUNNY     47  40  76 VRB5      30.19R
MISSOULA       PTCLDY    61  42  49 E13       30.19R
BUTTE          CLOUDY    51  43  74 W8        30.28R
MULLAN PASS    CLEAR     48  40  73 E9        30.22R
DEER LODGE       N/A     52  45  76 NW9       30.30S
EUREKA           N/A     57  39  51 E6        30.18R
HAMILTON         N/A     61  48  63 N5        30.17R
LIBBY            N/A     54  43  66 S3        30.18S
PLAINS           N/A     58  45  62 W1        30.15S
RONAN            N/A     56  48  74 SE3       30.20S
$$

MTZ008-052>055-060800-
SOUTHWEST MONTANA

CITY           SKY/WX    TMP DP  RH WIND       PRES   REMARKS
BOZEMAN        CLOUDY    55  50  83 SW6       30.24R
DILLON         CLOUDY    52  47  83 E14       30.23R
W YELLOWSTONE  MOCLDY    48  48 100 N3        30.26S
THREE FORKS      N/A     56  56 100 CALM      30.22R
TWIN BRIDGES     N/A     54  44  68 N15       30.19R
$$

MTZ009-010-012-014-046-048-049-054-060800-
EAST SLOPES AND CENTRAL MONTANA

CITY           SKY/WX    TMP DP  RH WIND       PRES   REMARKS
CUT BANK       CLEAR     45  43  93 W9        30.25F
GREAT FALLS    CLOUDY    50  49  96 W5        30.27S
MALMSTROM AFB  MOCLDY    51  49  93 W6        30.27S
HELENA         CLOUDY    53  47  79 W7        30.27R
$$

MTZ011-013-016-021-045-047-050-051-060800-
NORTH CENTRAL MONTANA

CITY           SKY/WX    TMP DP  RH WIND       PRES   REMARKS
HAVRE          CLOUDY    54  52  93 MISG      30.22R
LEWISTOWN      CLOUDY    52  48  86 SW6       30.26S
CHINOOK          N/A     55  52  88 SW7       30.21R
FORT BENTON      N/A     54  50  87 SW5       30.26F
$$

MTZ017>020-022>027-061-062-060800-
NORTHEAST MONTANA

CITY           SKY/WX    TMP DP  RH WIND       PRES   REMARKS
GLASGOW        LGT RAIN  57  53  86 W7        30.16R
JORDAN           N/A     57  54  89 W7        30.19R
SIDNEY         CLOUDY    61  52  72 NW7       30.11R
WOLF POINT     CLOUDY    60  52  74 W6        30.14R
MALTA            N/A     57  51  80 CALM      30.14S
PLENTYWOOD       N/A     54  46  76 W5        30.11S
POPLAR           N/A     57  54  88 CALM      30.13R
SCOBEY           N/A     51  44  77 NW2       30.12R
$$

MTZ028>42-056>058-060800-
SOUTHCENTRAL AND SOUTHEAST MONTANA

CITY           SKY/WX    TMP DP  RH WIND       PRES   REMARKS
BAKER          CLOUDY    59  50  72 W10       30.14S
BILLINGS       CLOUDY    55  47  74 NE7       30.24R
LIVINGSTON     CLOUDY    54  49  83 E9        30.24S
MILES CITY     CLOUDY    58  54  86 NW13      30.17R
EKALAKA          N/A     55  50  83 NW3       30.13S
FORSYTH          N/A     57  55  94 W8        30.19S
LAUREL           N/A     55  45  69 N3        30.20S
ROUNDUP          N/A     55  46  71 MISG      30.13F
$$

REGIONAL REPORTS...DAKOTAS

CITY           SKY/WX    TMP DP  RH WIND       PRES   REMARKS
WILLISTON      CLOUDY    61  51  70 N5        30.10R
MINOT          PTCLDY    57  51  80 NW10      30.02F
DICKINSON      CLOUDY    57  52  83 NW7       30.07R
BEACH          CLOUDY    59  54  82 NW10      30.13R
CROSBY         CLOUDY    54  54 100 NW8       30.10S
BISMARCK       MOCLDY    64  56  75 N9        30.00R HAZE
GRAND FORKS    CLOUDY    62  59  90 N14G20    29.90S FOG
FARGO          CLOUDY    66  58  75 N9        29.88R HAZE
BUFFALO SD       N/A     60  53  77 N16       30.05R
RAPID CITY     CLOUDY    60  57  89 NW14      30.10R FOG
$$

REGIONAL REPORTS...WYOMING/IDAHO/WASHINGTON

CITY           SKY/WX    TMP DP  RH WIND       PRES   REMARKS
GILLETTE       CLOUDY    56  54  93 NW10      30.19R FOG
SHERIDAN       CLOUDY    56  54  93 N3        30.20F FOG
BUFFALO WY     CLOUDY    53  51  93 W8        30.24S FOG
CODY           CLOUDY    52  52 100 NE7       30.22R
YELLOWSTONE LA   N/A     49  48  97 CALM      30.33F
IDAHO FALLS    CLOUDY    65  55  70 E12       30.10R
SALMON         MOCLDY    66  52  59 SE5       30.07R
BOISE          PTCLDY    72  55  55 SE6       29.98R
SPOKANE        PTCLDY    72  44  36 E15G23    30.01R
$$

REGIONAL REPORTS...ALBERTA

CITY           SKY/WX    TMP DP  RH WIND       PRES   REMARKS
EDMONTON       CLEAR     54  37  54 S5        30.16S
CALGARY        PTCLDY    52  43  71 S6        30.23S
LETHBRIDGE     CLEAR     48  46  93 SW6       30.23S
MEDICINE HAT   CLEAR     50  48  93 W3        30.21S
WATERTON GATE    N/A     39  37  93 S1          N/A
CARDSTON         N/A     46  45  93 S2          N/A
MILK RIVER       N/A     45  43  93 W7          N/A
ONEFOUR          N/A     50  46  87 NW12        N/A
$$

REGIONAL REPORTS...SASKATCHEWAN

CITY           SKY/WX    TMP DP  RH WIND       PRES   REMARKS
SWIFT CURRENT  CLOUDY    54  46  76 NE5       30.15F
REGINA         MOCLDY    50  48  93 N7        30.12R
SASKATOON      PTCLDY    48  43  81 W5        30.16S
CYPRESS HILLS    N/A     46  43  87 NW2         N/A
VAL MARIE        N/A     52  50  93 NW6         N/A
ROCKGLEN         N/A     52  48  87 W6          N/A
ASSINIBOIA       N/A     46  43  87 W5          N/A
$$



USA.gov is the U.S. government's official web portal to all federal, state and local government web resources and services.